TimeCST,TemperatureF,Dew PointF,Humidity,Sea Level PressureIn,VisibilityMPH,Wind Direction,Wind SpeedMPH,Gust SpeedMPH,PrecipitationIn,Events,Conditions,WindDirDegrees,DateUTC
12:15 AM,-7.6,-14.8,71,30.10,10.0,WSW,4.6,-,N/A,,Scattered Clouds,240,2013-01-23 06:15:00
12:35 AM,-7.6,-14.8,71,30.09,10.0,WSW,3.5,-,N/A,,Scattered Clouds,240,2013-01-23 06:35:00
12:55 AM,-7.6,-14.8,71,30.09,10.0,Calm,Calm,-,N/A,,Mostly Cloudy,0,2013-01-23 06:55:00
1:15 AM,-9.4,-14.8,77,30.08,10.0,Calm,Calm,-,N/A,,Scattered Clouds,0,2013-01-23 07:15:00
1:35 AM,-9.4,-14.8,77,30.08,10.0,Calm,Calm,-,N/A,,Clear,0,2013-01-23 07:35:00
1:55 AM,-11.2,-16.6,77,30.08,10.0,Calm,Calm,-,N/A,,Clear,0,2013-01-23 07:55:00
2:15 AM,-14.8,-20.2,77,30.08,10.0,SW,3.5,-,N/A,,Clear,220,2013-01-23 08:15:00
2:35 AM,-14.8,-20.2,77,30.08,10.0,Calm,Calm,-,N/A,,Clear,0,2013-01-23 08:35:00
3:15 AM,-18.4,-23.8,76,30.07,10.0,SSW,3.5,-,N/A,,Clear,210,2013-01-23 09:15:00
3:35 AM,-18.4,-23.8,76,30.07,10.0,Calm,Calm,-,N/A,,Clear,0,2013-01-23 09:35:00
3:55 AM,-16.6,-22.0,76,30.06,10.0,Calm,Calm,-,N/A,,Clear,0,2013-01-23 09:55:00
4:15 AM,-20.2,-25.6,76,30.06,10.0,Calm,Calm,-,N/A,,Scattered Clouds,0,2013-01-23 10:15:00
4:35 AM,-18.4,-23.8,76,30.05,10.0,Calm,Calm,-,N/A,,Mostly Cloudy,0,2013-01-23 10:35:00
5:15 AM,-20.2,-25.6,76,30.03,10.0,Calm,Calm,-,N/A,Snow,Light Snow,0,2013-01-23 11:15:00
5:35 AM,-18.4,-25.6,70,30.02,10.0,Calm,Calm,-,N/A,,Overcast,0,2013-01-23 11:35:00
5:55 AM,-16.6,-22.0,76,30.02,10.0,Calm,Calm,-,N/A,Snow,Light Snow,0,2013-01-23 11:55:00
6:15 AM,-14.8,-20.2,77,30.02,10.0,Calm,Calm,-,N/A,Snow,Light Snow,0,2013-01-23 12:15:00
6:35 AM,-14.8,-20.2,77,30.01,10.0,Calm,Calm,-,N/A,Snow,Light Snow,0,2013-01-23 12:35:00
6:55 AM,-14.8,-18.4,84,30.01,10.0,Calm,Calm,-,N/A,Snow,Light Snow,0,2013-01-23 12:55:00
7:15 AM,-13.0,-18.4,77,30.00,10.0,Calm,Calm,-,N/A,,Overcast,0,2013-01-23 13:15:00
7:35 AM,-13.0,-18.4,77,30.00,10.0,Calm,Calm,-,N/A,,Overcast,0,2013-01-23 13:35:00
7:55 AM,-13.0,-16.6,84,30.00,10.0,Calm,Calm,-,N/A,,Overcast,0,2013-01-23 13:55:00
8:15 AM,-11.2,-16.6,77,29.99,10.0,Calm,Calm,-,N/A,,Overcast,0,2013-01-23 14:15:00
8:35 AM,-9.4,-14.8,77,29.99,7.0,Calm,Calm,-,N/A,Snow,Light Snow,0,2013-01-23 14:35:00
8:55 AM,-7.6,-13.0,77,29.99,2.5,Calm,Calm,-,N/A,Snow,Light Snow,0,2013-01-23 14:55:00
9:15 AM,-5.8,-11.2,77,30.00,2.0,Calm,Calm,-,N/A,Snow,Light Snow,0,2013-01-23 15:15:00
9:35 AM,-4.0,-9.4,78,30.00,2.0,West,4.6,-,N/A,Snow,Light Snow,260,2013-01-23 15:35:00
9:55 AM,-2.2,-7.6,78,29.99,3.0,SW,3.5,-,N/A,Snow,Light Snow,230,2013-01-23 15:55:00
10:15 AM,-0.4,-7.6,72,29.99,10.0,WSW,5.8,-,N/A,,Mostly Cloudy,250,2013-01-23 16:15:00
10:35 AM,1.4,-5.8,72,29.99,10.0,WSW,4.6,-,N/A,,Overcast,250,2013-01-23 16:35:00
10:55 AM,3.2,-5.8,66,29.99,10.0,WSW,3.5,-,N/A,,Overcast,250,2013-01-23 16:55:00
11:15 AM,3.2,-4.0,72,29.98,7.0,WSW,6.9,-,N/A,,Overcast,250,2013-01-23 17:15:00
11:35 AM,5.0,-4.0,66,29.97,10.0,West,9.2,-,N/A,,Mostly Cloudy,260,2013-01-23 17:35:00
11:55 AM,6.8,-2.2,67,29.96,10.0,WSW,10.4,-,N/A,,Mostly Cloudy,250,2013-01-23 17:55:00
12:15 PM,6.8,-2.2,67,29.95,7.0,West,8.1,-,N/A,,Overcast,280,2013-01-23 18:15:00
12:35 PM,8.6,-2.2,62,29.94,7.0,WNW,6.9,-,N/A,,Overcast,290,2013-01-23 18:35:00
1:15 PM,8.6,-0.4,67,29.94,4.0,West,9.2,-,N/A,,Haze,280,2013-01-23 19:15:00
1:35 PM,8.6,-0.4,67,29.95,4.0,West,9.2,-,N/A,,Haze,280,2013-01-23 19:35:00
1:55 PM,8.6,-0.4,67,29.95,3.0,West,8.1,-,N/A,,Haze,280,2013-01-23 19:55:00
2:15 PM,8.6,-0.4,67,29.95,7.0,West,10.4,-,N/A,,Overcast,280,2013-01-23 20:15:00
2:35 PM,8.6,-0.4,67,29.97,5.0,WNW,8.1,-,N/A,,Haze,300,2013-01-23 20:35:00
2:55 PM,8.6,1.4,73,29.98,1.5,WNW,9.2,17.3,N/A,Snow,Light Snow,300,2013-01-23 20:55:00
3:15 PM,8.6,1.4,73,29.99,1.5,WNW,8.1,17.3,N/A,Snow,Light Snow,290,2013-01-23 21:15:00
3:35 PM,6.8,1.4,79,30.01,1.0,WNW,12.7,20.7,N/A,Snow,Light Snow,300,2013-01-23 21:35:00
3:55 PM,6.8,1.4,79,30.02,1.5,NW,8.1,-,N/A,Snow,Light Snow,310,2013-01-23 21:55:00
4:15 PM,6.8,1.4,79,30.03,2.0,WNW,5.8,-,N/A,Snow,Light Snow,300,2013-01-23 22:15:00
4:35 PM,5.0,1.4,85,30.05,0.8,NNW,8.1,-,N/A,Snow,Light Snow,340,2013-01-23 22:35:00
4:55 PM,5.0,1.4,85,30.07,1.2,North,12.7,17.3,N/A,Snow,Light Snow,350,2013-01-23 22:55:00
5:15 PM,5.0,1.4,85,30.09,1.8,North,16.1,20.7,N/A,Snow,Light Snow,10,2013-01-23 23:15:00
5:35 PM,5.0,-0.4,78,30.10,1.8,North,13.8,21.9,N/A,Snow,Light Snow,10,2013-01-23 23:35:00
5:55 PM,5.0,-0.4,78,30.13,2.0,North,11.5,17.3,N/A,Snow,Light Snow,360,2013-01-23 23:55:00
6:15 PM,5.0,-0.4,78,30.14,4.0,North,10.4,20.7,N/A,,Haze,360,2013-01-24 00:15:00
6:35 PM,3.2,-2.2,78,30.15,4.0,North,13.8,25.3,N/A,,Haze,350,2013-01-24 00:35:00
6:55 PM,3.2,-2.2,78,30.17,7.0,North,12.7,20.7,N/A,,Mostly Cloudy,360,2013-01-24 00:55:00
7:15 PM,3.2,-4.0,72,30.19,7.0,North,11.5,16.1,N/A,,Scattered Clouds,360,2013-01-24 01:15:00
7:35 PM,3.2,-4.0,72,30.21,7.0,North,11.5,17.3,N/A,,Mostly Cloudy,350,2013-01-24 01:35:00
8:15 PM,1.4,-4.0,78,30.24,5.0,North,9.2,-,N/A,,Haze,360,2013-01-24 02:15:00
8:35 PM,1.4,-4.0,78,30.25,7.0,North,11.5,-,N/A,,Overcast,360,2013-01-24 02:35:00
8:55 PM,1.4,-4.0,78,30.26,7.0,North,11.5,16.1,N/A,,Mostly Cloudy,360,2013-01-24 02:55:00
9:15 PM,1.4,-4.0,78,30.27,7.0,North,9.2,-,N/A,,Mostly Cloudy,350,2013-01-24 03:15:00
9:35 PM,1.4,-4.0,78,30.29,7.0,North,6.9,-,N/A,,Overcast,360,2013-01-24 03:35:00
9:55 PM,1.4,-4.0,78,30.29,10.0,North,6.9,-,N/A,,Scattered Clouds,360,2013-01-24 03:55:00
10:15 PM,1.4,-4.0,78,30.30,10.0,North,6.9,-,N/A,,Clear,360,2013-01-24 04:15:00
10:35 PM,-0.4,-5.8,78,30.31,7.0,North,5.8,-,N/A,,Scattered Clouds,350,2013-01-24 04:35:00
10:55 PM,-0.4,-5.8,78,30.33,10.0,North,4.6,-,N/A,Snow,Light Snow,350,2013-01-24 04:55:00
11:15 PM,-0.4,-5.8,78,30.34,10.0,North,3.5,-,N/A,,Mostly Cloudy,360,2013-01-24 05:15:00
11:35 PM,-0.4,-4.0,85,30.35,10.0,North,4.6,-,N/A,,Overcast,350,2013-01-24 05:35:00